This demonstration page uses our WeatherBlox Daily Observations layout. Learn more.

Left ArrowRight Arrow

Hourly Observations for March 20, 2020

Temp ( °F °C ) Dew Point ( °F °C ) Humidity (%) Winds ( mph kmh ) Pressure ( in mb ) Visibility ( mi km ) Precip ( " mm )
12:07 am 00:07 Cloudy with Light Wintry Mix 33 0.6 29 -1.7 85 85 N 28 44 30.12 1020 9 14.48406 0.001 0.001
12:54 am 00:54 Cloudy with Light Wintry Mix 31 -0.6 27 -2.8 85 85 N 41 67 30.13 1020 6 9.65604 0.001 0.001
1:02 am 01:02 Cloudy with Light Wintry Mix 30 -1.1 25 -3.9 82 82 N 32 52 30.2 1023 9 14.48406 0.001 0.001
1:15 am 01:15 Cloudy with Light Wintry Mix 30 -1.1 26 -3.3 85 85 N 30 48 30.22 1023 9 14.48406 0.001 0.001
1:38 am 01:38 Cloudy 29 -1.7 23 -5 78 78 N 32 52 30.23 1024 10 16.0934 0.001 0.001
1:54 am 01:54 Cloudy with Light Wintry Mix 28 -2.2 23 -5 81 81 N 31 50 30.19 1022 10 16.0934 0.001 0.001
2:54 am 02:54 Cloudy 26 -3.3 19 -7.2 75 75 N 39 63 30.26 1025 10 16.0934 0.001 0.001
3:07 am 03:07 Cloudy 25 -3.9 19 -7.2 78 78 N 32 52 30.34 1027 10 16.0934 0 0
3:54 am 03:54 Cloudy 24 -4.4 16 -8.9 71 71 N 26 43 30.32 1027 10 16.0934 0 0
4:54 am 04:54 Clear 21 -6.1 13 -10.6 71 71 NNW 25 41 30.38 1029 10 16.0934 0 0
5:54 am 05:54 Clear 20 -6.7 10 -12.2 65 65 NNW 29 46 30.44 1031 10 16.0934 0 0
6:54 am 06:54 Clear 19 -7.2 9 -12.8 65 65 N 20 31 30.48 1032 10 16.0934 0 0
7:54 am 07:54 Sunny 18 -7.8 8 -13.3 65 65 NNW 25 41 30.51 1033 10 16.0934 0 0
8:54 am 08:54 Sunny 20 -6.7 9 -12.8 62 62 N 21 33 30.56 1035 10 16.0934 0 0
9:54 am 09:54 Sunny 23 -5 10 -12.2 57 57 N 17 28 30.63 1037 10 16.0934 0 0
10:54 am 10:54 Sunny 25 -3.9 11 -11.7 55 55 N 18 30 30.65 1038 10 16.0934 0 0
11:54 am 11:54 Sunny 26 -3.3 13 -10.6 57 57 N 18 30 30.66 1038 10 16.0934 0 0
12:54 pm 12:54 Sunny 28 -2.2 13 -10.6 53 53 N 22 35 30.65 1038 10 16.0934 0 0
1:54 pm 13:54 Sunny 30 -1.1 14 -10 51 51 N 18 30 30.64 1038 10 16.0934 0 0
2:54 pm 14:54 Sunny 30 -1.1 14 -10 51 51 N 17 28 30.62 1037 10 16.0934 0 0
3:54 pm 15:54 Sunny 32 0 15 -9.4 50 50 N 16 26 30.62 1037 10 16.0934 0 0
4:54 pm 16:54 Sunny 31 -0.6 13 -10.6 47 47 N 15 24 30.61 1037 10 16.0934 0 0
5:54 pm 17:54 Sunny 30 -1.1 14 -10 51 51 N 17 28 30.62 1037 10 16.0934 0 0
6:54 pm 18:54 Sunny 28 -2.2 13 -10.6 53 53 N 12 19 30.63 1037 10 16.0934 0 0
7:54 pm 19:54 Clear 25 -3.9 14 -10 63 63 NNE 13 20 30.63 1037 10 16.0934 0 0
8:54 pm 20:54 Clear 22 -5.6 14 -10 71 71 N 8 13 30.64 1038 10 16.0934 0 0
9:54 pm 21:54 Clear 20 -6.7 14 -10 78 78 N 7 11 30.65 1038 10 16.0934 0 0
10:54 pm 22:54 Clear 19 -7.2 13 -10.6 77 77 N 7 11 30.66 1038 10 16.0934 0 0
11:54 pm 23:54 Cloudy 23 -5 16 -8.9 74 74 NNE 7 11 30.64 1038 10 16.0934 0 0

Powered by AerisWeather